This is the latest recevied weather packets stored in our database for station/object KI6SYE. If no packets are shown the sender has not sent any weather packets the latest 10 day(s).
| Time | Temp. | Humidity | Pressure | Rain* | Wind** | Luminosity | Snow |
|---|---|---|---|---|---|---|---|
| 1777816679 | 15° C | 84% | 1012.9 hPa | 0 mm | - | 32 W/m² | - |
| 1777816376 | 15° C | 84% | 1012.9 hPa | 0 mm | - | 29 W/m² | - |
| 1777816074 | 15° C | 84% | 1013.1 hPa | 0 mm | - | 23 W/m² | - |
| 1777815771 | 15° C | 84% | 1012.9 hPa | 0 mm | - | 18 W/m² | - |
| 1777815469 | 15° C | 84% | 1012.9 hPa | 0 mm | - | 14 W/m² | - |
| 1777815166 | 15° C | 84% | 1012.7 hPa | 0 mm | - | 11 W/m² | - |
| 1777814862 | 15° C | 84% | 1012.9 hPa | 0 mm | - | 9 W/m² | - |
| 1777814558 | 15° C | 84% | 1013 hPa | 0 mm | - | 6 W/m² | - |
| 1777814256 | 15° C | 84% | 1012.9 hPa | 0 mm | - | 4 W/m² | - |
| 1777813953 | 15° C | 84% | 1012.7 hPa | 0 mm | - | 3 W/m² | - |
| 1777813650 | 15° C | 84% | 1012.8 hPa | 0 mm | - | 2 W/m² | - |
| 1777813347 | 15° C | 84% | 1012.7 hPa | 0 mm | - | 1 W/m² | - |
| 1777813045 | 15° C | 84% | 1012.7 hPa | 0 mm | - | 1 W/m² | - |
| 1777812742 | 15° C | 84% | 1012.7 hPa | 0 mm | - | 0 W/m² | - |
| 1777812439 | 15° C | 84% | 1012.9 hPa | 0 mm | - | 0 W/m² | - |
| 1777812137 | 15° C | 85% | 1012.7 hPa | 0 mm | - | 0 W/m² | - |
| 1777811835 | 15° C | 85% | 1012.6 hPa | 0 mm | - | 0 W/m² | - |
| 1777811533 | 15° C | 86% | 1012.6 hPa | 0 mm | - | 0 W/m² | - |
| 1777811228 | 15° C | 86% | 1012.4 hPa | 0 mm | - | 0 W/m² | - |
| 1777810926 | 15° C | 86% | 1012.4 hPa | 0 mm | - | 0 W/m² | - |
| 1777810622 | 14.44° C | 87% | 1012.5 hPa | 0 mm | - | 0 W/m² | - |
| 1777810319 | 15° C | 89% | 1012.5 hPa | 0 mm | - | 0 W/m² | - |
| 1777810014 | 15° C | 89% | 1012.3 hPa | 0 mm | - | 0 W/m² | - |
| 1777809713 | 15° C | 90% | 1012.3 hPa | 0 mm | - | 0 W/m² | - |
| 1777809410 | 15° C | 90% | 1012.3 hPa | 0 mm | - | 0 W/m² | - |
* Rain latest hour (hover to see other rain measurements)
** Current wind speed in m/s (hover to see current wind gust speed)